When you browse on this site, cookies collect data to enhance your experience and personalize the content and advertising you see.
Visit our Privacy Policy to learn more. By continuing to use the site, you agree to this use of cookies and data.
  • In Germany
  • List of Countries
  • For 7 days
  • Water Temperature
  • Weather Map
  • Weather Widgets
  • user-avatar
    Login

    Hourly Weather Shkoder

    Today, 23 August, Friday

    Time Temperature Precipitation Wind Pressure Humidity
    00:00 +26°C° 0 mm 3 mps 743 mmHg 45%
    01:00 +26°C° 0 mm 3 mps 743 mmHg 49%
    02:00 +26°C° 0 mm 3 mps 743 mmHg 50%
    03:00 +26°C° 0 mm 2 mps 743 mmHg 51%
    04:00 +26°C° 0 mm 2 mps 743 mmHg 51%
    05:00 +27°C° 0 mm 2 mps 743 mmHg 49%
    06:00 +27°C° 0 mm 2 mps 743 mmHg 47%
    07:00 +29°C° 0 mm 2 mps 743 mmHg 46%
    08:00 +31°C° 0 mm 2 mps 743 mmHg 42%
    09:00 +32°C° 0 mm 2 mps 743 mmHg 38%
    10:00 +35°C° 0 mm 2 mps 744 mmHg 34%
    11:00 +36°C° 0 mm 2 mps 743 mmHg 31%
    12:00 +37°C° 0 mm 2 mps 743 mmHg 28%
    13:00 +38°C° 0 mm 2 mps 742 mmHg 25%
    14:00 +37°C° 0 mm 2 mps 742 mmHg 27%
    15:00 +37°C° 0 mm 2 mps 742 mmHg 29%
    16:00 +36°C° 0 mm 2 mps 742 mmHg 31%
    17:00 +34°C° 0 mm 2 mps 742 mmHg 35%
    18:00 +32°C° 0 mm 2 mps 742 mmHg 39%
    19:00 +30°C° 0 mm 2 mps 742 mmHg 43%
    20:00 +29°C° 0.3 mm 2 mps 742 mmHg 47%
    21:00 +28°C° 0.3 mm 2 mps 742 mmHg 51%
    22:00 +27°C° 0.3 mm 2 mps 743 mmHg 54%
    23:00 +27°C° 0.4 mm 2 mps 742 mmHg 58%

    Tomorrow, 24 August, Saturday

    Time Temperature Precipitation Wind Pressure Humidity
    00:00 +26°C° 0.4 mm 2 mps 742 mmHg 61%
    01:00 +25°C° 0.4 mm 2 mps 742 mmHg 65%
    02:00 +25°C° 0.7 mm 2 mps 742 mmHg 67%
    03:00 +24°C° 0.7 mm 2 mps 742 mmHg 69%
    04:00 +24°C° 0.7 mm 2 mps 742 mmHg 71%
    05:00 +24°C° 0.6 mm 2 mps 742 mmHg 70%
    06:00 +25°C° 0.6 mm 2 mps 742 mmHg 69%
    07:00 +26°C° 0.6 mm 2 mps 742 mmHg 68%
    08:00 +28°C° 0.2 mm 2 mps 742 mmHg 60%
    09:00 +29°C° 0.2 mm 2 mps 742 mmHg 52%
    10:00 +31°C° 0.2 mm 2 mps 742 mmHg 44%
    11:00 +34°C° 0.1 mm 2 mps 742 mmHg 39%
    12:00 +35°C° 0.1 mm 2 mps 741 mmHg 34%
    13:00 +37°C° 0.1 mm 2 mps 741 mmHg 29%
    14:00 +34°C° 0.6 mm 3 mps 741 mmHg 41%
    15:00 +30°C° 0.6 mm 3 mps 741 mmHg 52%
    16:00 +27°C° 0.6 mm 4 mps 740 mmHg 63%
    17:00 +26°C° 0.3 mm 3 mps 741 mmHg 65%
    18:00 +25°C° 0.3 mm 3 mps 741 mmHg 68%
    19:00 +25°C° 0.3 mm 3 mps 741 mmHg 70%
    20:00 +24°C° 0 mm 3 mps 741 mmHg 70%
    21:00 +24°C° 0 mm 3 mps 741 mmHg 70%
    22:00 +24°C° 0 mm 2 mps 741 mmHg 70%
    23:00 +24°C° 0 mm 2 mps 741 mmHg 70%

    Day after tomorrow, 25 August, Sunday

    Time Temperature Precipitation Wind Pressure Humidity
    00:00 +24°C° 0 mm 2 mps 741 mmHg 69%
    01:00 +23°C° 0 mm 2 mps 741 mmHg 69%
    02:00 +23°C° 0 mm 2 mps 740 mmHg 68%
    03:00 +23°C° 0 mm 2 mps 740 mmHg 67%
    04:00 +23°C° 0 mm 2 mps 740 mmHg 66%
    05:00 +24°C° 0.2 mm 2 mps 740 mmHg 65%
    06:00 +25°C° 0.2 mm 2 mps 740 mmHg 63%
    07:00 +26°C° 0.2 mm 2 mps 740 mmHg 62%
    08:00 +29°C° 0 mm 2 mps 740 mmHg 53%
    09:00 +31°C° 0 mm 1 mps 740 mmHg 45%
    10:00 +34°C° 0 mm 1 mps 741 mmHg 36%
    11:00 +36°C° 0 mm 2 mps 740 mmHg 34%
    12:00 +36°C° 0 mm 2 mps 740 mmHg 31%
    13:00 +37°C° 0 mm 2 mps 740 mmHg 28%
    14:00 +37°C° 0 mm 2 mps 740 mmHg 30%
    15:00 +36°C° 0 mm 2 mps 740 mmHg 32%
    16:00 +35°C° 0 mm 2 mps 739 mmHg 33%
    17:00 +31°C° 0.3 mm 2 mps 740 mmHg 45%
    18:00 +29°C° 0.3 mm 3 mps 740 mmHg 56%
    19:00 +26°C° 0.3 mm 3 mps 740 mmHg 68%
    20:00 +25°C° 0.5 mm 3 mps 740 mmHg 70%
    21:00 +24°C° 0.5 mm 3 mps 741 mmHg 73%
    22:00 +22°C° 0.5 mm 3 mps 741 mmHg 76%
    23:00 +22°C° 0 mm 3 mps 741 mmHg 74%

    26 August, Monday

    Time Temperature Precipitation Wind Pressure Humidity
    00:00 +23°C° 0 mm 2 mps 740 mmHg 73%
    01:00 +23°C° 0 mm 2 mps 740 mmHg 71%
    02:00 +23°C° 0 mm 2 mps 740 mmHg 71%
    03:00 +23°C° 0 mm 2 mps 740 mmHg 71%
    04:00 +21°C° 0 mm 2 mps 740 mmHg 71%
    05:00 +24°C° 0 mm 2 mps 740 mmHg 68%
    06:00 +25°C° 0 mm 2 mps 740 mmHg 65%
    07:00 +26°C° 0 mm 2 mps 740 mmHg 62%
    08:00 +28°C° 0 mm 2 mps 740 mmHg 54%
    09:00 +30°C° 0 mm 1 mps 740 mmHg 47%
    10:00 +32°C° 0 mm 1 mps 741 mmHg 40%
    11:00 +34°C° 0 mm 2 mps 740 mmHg 37%
    12:00 +35°C° 0 mm 2 mps 740 mmHg 34%
    13:00 +36°C° 0 mm 2 mps 740 mmHg 32%
    14:00 +35°C° 0.3 mm 3 mps 740 mmHg 36%
    15:00 +34°C° 0.3 mm 3 mps 740 mmHg 41%
    16:00 +31°C° 0.3 mm 3 mps 740 mmHg 46%
    17:00 +29°C° 0.8 mm 3 mps 740 mmHg 55%
    18:00 +26°C° 0.8 mm 3 mps 741 mmHg 64%
    19:00 +22°C° 0.8 mm 3 mps 741 mmHg 73%
    20:00 +22°C° 0 mm 3 mps 741 mmHg 73%
    21:00 +22°C° 0 mm 3 mps 741 mmHg 74%
    22:00 +22°C° 0 mm 3 mps 741 mmHg 74%
    23:00 +22°C° 0 mm 3 mps 741 mmHg 73%

    27 August, Tuesday

    Time Temperature Precipitation Wind Pressure Humidity
    00:00 +23°C° 0 mm 2 mps 741 mmHg 73%
    01:00 +23°C° 0 mm 2 mps 741 mmHg 72%
    02:00 +21°C° 0 mm 2 mps 740 mmHg 71%
    03:00 +21°C° 0 mm 2 mps 740 mmHg 70%
    04:00 +21°C° 0 mm 2 mps 740 mmHg 70%
    05:00 +23°C° 0 mm 2 mps 740 mmHg 66%
    06:00 +25°C° 0 mm 2 mps 741 mmHg 63%
    07:00 +26°C° 0 mm 2 mps 741 mmHg 59%
    08:00 +28°C° 0 mm 2 mps 741 mmHg 52%
    09:00 +31°C° 0 mm 1 mps 741 mmHg 44%
    10:00 +33°C° 0 mm 1 mps 741 mmHg 36%
    11:00 +35°C° 0 mm 2 mps 741 mmHg 34%
    12:00 +35°C° 0 mm 2 mps 741 mmHg 32%
    13:00 +36°C° 0 mm 2 mps 741 mmHg 30%
    14:00 +35°C° 0 mm 2 mps 741 mmHg 32%
    15:00 +35°C° 0 mm 3 mps 741 mmHg 34%
    16:00 +34°C° 0 mm 3 mps 740 mmHg 36%
    17:00 +31°C° 0.1 mm 2 mps 741 mmHg 43%
    18:00 +28°C° 0.1 mm 2 mps 741 mmHg 51%
    19:00 +26°C° 0.1 mm 2 mps 741 mmHg 58%
    20:00 +25°C° 0.1 mm 2 mps 741 mmHg 61%
    21:00 +25°C° 0.1 mm 2 mps 741 mmHg 63%
    22:00 +24°C° 0.1 mm 2 mps 742 mmHg 65%
    23:00 +24°C° 0 mm 2 mps 741 mmHg 65%

    28 August, Wednesday

    Time Temperature Precipitation Wind Pressure Humidity
    00:00 +24°C° 0 mm 2 mps 741 mmHg 65%
    01:00 +24°C° 0 mm 2 mps 741 mmHg 64%
    02:00 +23°C° 0 mm 2 mps 741 mmHg 65%
    03:00 +23°C° 0 mm 2 mps 741 mmHg 65%
    04:00 +23°C° 0 mm 2 mps 741 mmHg 65%
    05:00 +24°C° 0 mm 2 mps 741 mmHg 62%
    06:00 +25°C° 0 mm 2 mps 741 mmHg 59%
    07:00 +26°C° 0 mm 2 mps 741 mmHg 56%
    08:00 +29°C° 0 mm 2 mps 741 mmHg 49%
    09:00 +31°C° 0 mm 2 mps 741 mmHg 42%
    10:00 +34°C° 0 mm 2 mps 741 mmHg 35%
    11:00 +34°C° 0 mm 2 mps 741 mmHg 33%
    12:00 +35°C° 0 mm 2 mps 741 mmHg 31%
    13:00 +36°C° 0 mm 2 mps 740 mmHg 30%
    14:00 +35°C° 0 mm 2 mps 740 mmHg 30%
    15:00 +35°C° 0 mm 2 mps 740 mmHg 30%
    16:00 +35°C° 0 mm 2 mps 740 mmHg 31%
    17:00 +32°C° 0 mm 2 mps 740 mmHg 38%
    18:00 +29°C° 0 mm 1 mps 740 mmHg 44%
    19:00 +27°C° 0 mm 1 mps 740 mmHg 51%
    20:00 +27°C° 0 mm 1 mps 740 mmHg 51%
    21:00 +26°C° 0 mm 1 mps 740 mmHg 52%
    22:00 +26°C° 0 mm 1 mps 740 mmHg 52%
    23:00 +25°C° 0 mm 1 mps 740 mmHg 50%
    Show more